CAPE
0 0 0 0 0 0 0 0 0 0 0 0 0 0 0 19 46 55 26 1 0 0 0 0 0 0 0 0 0 0 0 9 178 157 97 154 123 214 214 234 201 137 166 46
0 0 0 0 0 0 0 0 0 0 0 0 0 0 0 0 53 104 57 14 1 0 2 0 0 0 0 0 0 0 0 7 47 128 62 160 123 148 163 179 178 177 237 101
0 0 0 0 0 0 0 0 0 0 0 0 0 0 0 61 40 130 138 39 3 0 9 1 0 0 0 0 0 0 0 2 58 47 86 155 92 87 168 204 221 147 138 95
0 3 4 13 0 0 0 0 0 0 0 0 0 0 0 0 60 142 200 87 26 15 29 2 0 0 0 0 0 0 0 0 76 35 123 124 200 224 214 236 318 141 85 72
5 24 15 25 0 0 0 0 0 0 0 0 0 0 0 0 0 68 269 200 129 83 75 0 0 0 0 0 0 0 0 0 64 43 121 79 54 357 307 206 2 13 32 8
6 16 4 9 0 0 0 0 0 0 0 0 0 0 0 0 1 41 201 318 218 158 133 0 0 0 0 0 0 0 0 0 47 18 35 5 0 292 386 280 124 42 5 0
0 21 47 1 0 0 0 0 0 0 0 0 0 0 0 0 0 71 129 364 294 203 156 0 0 0 0 0 0 0 0 0 5 80 7 22 0 228 387 213 222 64 11 14
0 1 17 1 0 0 0 0 0 0 0 0 0 0 0 0 0 23 157 246 292 257 163 8 0 0 0 0 0 0 0 0 0 71 64 120 24 68 318 352 307 192 92 37
2 1 1 5 4 3 2 2 0 0 0 0 0 0 0 0 0 37 47 200 259 277 168 27 0 0 0 0 0 0 0 0 0 19 29 109 82 0 144 386 241 204 176 130
2 3 0 0 0 0 0 0 0 0 0 0 0 0 0 0 14 89 41 139 237 258 199 68 4 0 0 0 0 0 0 0 0 0 88 1 0 0 0 54 77 4 6 113
11 4 2 3 0 0 0 0 0 0 0 0 0 0 0 0 6 114 60 19 210 235 236 115 20 0 0 0 0 0 0 0 0 0 2 53 0 0 0 0 0 0 0 0
5 15 5 2 0 0 0 0 0 0 0 0 0 0 0 187 237 176 132 1 98 278 280 127 16 0 0 0 0 0 0 0 0 0 0 2 60 7 0 0 0 0 0 0
16 2 5 6 0 0 0 0 0 0 0 0 0 0 0 107 318 320 265 0 42 237 333 176 9 0 0 0 0 0 0 0 0 0 0 0 0 55 0 0 0 0 0 0
1 3 1 12 2 0 0 0 0 0 0 0 0 0 0 1 221 292 196 0 10 66 285 242 37 4 0 0 0 0 0 0 0 0 0 0 0 0 0 0 0 0 0 0
5 5 5 1 0 0 0 0 0 0 0 0 0 0 0 0 57 194 178 0 0 15 126 218 109 25 4 0 0 0 0 0 0 0 0 0 0 0 0 0 0 0 0 0
0 3 9 4 0 0 1 0 0 0 0 0 0 0 0 0 0 220 214 74 0 31 61 114 124 88 41 2 0 21 6 0 0 0 0 0 0 0 0 0 0 0 0 0
14 3 7 8 6 2 1 0 0 0 0 0 0 0 0 0 0 0 257 298 181 41 73 56 66 56 41 3 6 24 29 0 0 0 0 0 0 0 0 0 0 0 0 0
12 15 4 15 1 5 0 0 0 0 0 0 0 0 0 0 0 0 90 434 324 172 117 90 39 44 39 0 0 22 20 0 0 0 0 0 0 0 0 0 0 0 0 0
7 8 26 32 34 13 9 3 1 0 0 0 0 0 0 0 0 0 0 469 586 438 450 242 0 0 50 0 0 10 12 0 0 0 0 0 0 0 0 0 0 0 0 0
3 0 5 13 9 18 21 13 18 4 0 0 0 0 0 0 0 0 0 103 171 287 148 417 169 0 6 16 0 0 0 0 0 0 0 0 0 0 0 0 0 0 0 0
16 22 29 21 1 7 5 3 9 18 5 0 0 0 0 0 0 0 0 0 43 0 0 48 299 136 0 3 0 0 0 0 0 0 0 0 0 0 0 0 0 0 0 0
18 13 6 11 32 28 12 6 3 5 11 1 0 0 0 0 0 0 0 0 0 0 0 94 323 83 144 0 0 0 0 0 0 1 0 0 0 0 0 0 0 0 0 0
13 14 28 13 24 33 13 1 0 0 0 10 11 1 0 0 0 0 0 0 0 0 0 0 16 0 0 0 0 0 0 7 0 0 0 0 0 0 0 0 0 0 0 0
12 15 10 23 25 17 10 6 10 15 7 2 0 3 6 0 0 0 0 0 0 0 0 0 0 0 0 22 167 52 40 28 6 0 0 0 0 0 1 0 0 0 0 0
7 15 22 22 32 25 25 12 5 11 8 5 4 2 2 0 1 0 0 0 0 0 0 0 0 0 0 0 24 298 372 266 168 112 18 14 1 0 2 0 1 20 7 1
0 0 9 16 16 17 23 12 18 5 1 2 4 2 2 5 0 0 0 0 0 0 0 0 0 0 0 3 167 334 254 276 163 94 133 97 22 2 1 0 0 1 1 1
5 0 0 0 6 3 17 10 8 2 2 2 3 3 3 3 4 6 2 0 0 0 0 0 0 0 0 42 440 440 516 376 160 91 54 5 3 5 0 0 0 0 0 0
CIN
-6 -0 -0 -0 -0 -0 -0 -0 -0 -0 -0 -0 -0 -0 -11 -106 -162 -212 -220 -180 -0 -0 -0 -0 -0 -0 -0 -0 -0 -0 -0 -19 -1 -0 -1 -1 -1 -1 -0 -0 -1 -7 -6 -32
-0 -0 -0 -0 -0 -0 -0 -0 -0 -0 -0 -0 -0 -0 -0 -0 -168 -162 -186 -234 -188 -0 -287 -4 -0 -0 -0 -0 -0 -0 -0 -1 -15 -4 -17 -1 -6 -3 -1 -3 -0 -0 -1 -18
-0 -1 -1 -0 -0 -0 -0 -0 -0 -0 -0 -0 -0 -0 -0 -107 -150 -114 -135 -174 -281 -56 -272 -279 -0 -0 -0 -0 -0 -0 -0 -38 -29 -39 -8 -1 -6 -34 -7 -0 -0 -7 -23 -11
-0 -7 -2 -14 -0 -0 -0 -0 -0 -0 -0 -0 -0 -0 -0 -2 -102 -97 -106 -158 -223 -244 -246 -270 -0 -0 -0 -0 -0 -0 -0 -0 -33 -48 -1 -1 -1 -1 -3 -0 -0 -8 -5 -9
-7 -10 -5 -20 -0 -0 -0 -0 -0 -0 -0 -0 -0 -0 -0 -0 -0 -83 -94 -118 -160 -202 -223 -47 -0 -0 -0 -0 -0 -0 -0 -0 -68 -49 -2 -10 -7 -0 -0 -6 -63 -32 -6 -15
-3 -6 -15 -9 -0 -0 -0 -0 -0 -0 -0 -0 -0 -0 -0 -0 -90 -133 -90 -102 -157 -210 -236 -0 -0 -0 -0 -0 -0 -0 -0 -0 -129 -119 -63 -1 -0 -1 -1 -1 -13 -4 -19 -0
-0 -5 -8 -1 -0 -0 -0 -0 -0 -0 -0 -0 -0 -0 -0 -0 -0 -309 -126 -122 -165 -199 -226 -0 -0 -0 -0 -0 -0 -0 -0 -0 -157 -119 -166 -101 -0 -4 -1 -1 -0 -2 -15 -9
-0 -4 -4 -0 -0 -0 -0 -1 -0 -0 -0 -0 -0 -0 -0 -0 -0 -355 -180 -155 -185 -201 -238 -267 -0 -0 -0 -0 -0 -0 -0 -0 -0 -171 -144 -88 -103 -55 -1 -0 -0 -0 -6 -13
-0 -0 -0 -1 -1 -0 -0 -0 -0 -0 -0 -0 -0 -0 -0 -0 -0 -365 -299 -177 -171 -187 -226 -323 -0 -0 -0 -0 -0 -0 -0 -0 -0 -215 -209 -136 -128 -0 -56 -1 -8 -7 -10 -17
-0 -0 -0 -0 -0 -0 -0 -0 -0 -0 -0 -0 -0 -0 -0 -0 -441 -348 -351 -240 -182 -172 -200 -296 -198 -0 -0 -0 -0 -0 -0 -0 -0 -0 -202 -86 -0 -0 -0 -106 -83 -2 -1 -41
-0 -0 -0 -0 -0 -0 -0 -0 -0 -0 -0 -0 -0 -0 -0 -0 -516 -378 -347 -315 -202 -185 -181 -256 -336 -0 -0 -0 -0 -0 -0 -0 -0 -0 -21 -250 -0 -0 -0 -0 -0 -0 -0 -0
-0 -0 -0 -0 -0 -0 -0 -0 -0 -0 -0 -0 -0 -0 -0 -416 -420 -415 -354 -131 -272 -195 -189 -221 -285 -0 -0 -0 -0 -0 -0 -0 -0 -0 -0 -37 -259 -222 -0 -0 -0 -0 -0 -0
-0 -0 -1 -1 -1 -0 -0 -0 -0 -0 -0 -0 -0 -0 -0 -460 -423 -450 -461 -0 -303 -216 -200 -199 -248 -0 -0 -0 -0 -0 -0 -0 -0 -0 -0 -0 -0 -287 -0 -0 -0 -0 -0 -0
-1 -1 -1 -1 -1 -0 -0 -0 -0 -0 -0 -0 -0 -0 -0 -25 -458 -437 -380 -0 -303 -265 -174 -187 -261 -224 -0 -0 -0 -0 -0 -0 -0 -0 -0 -0 -0 -0 -0 -0 -0 -0 -0 -0
-1 -1 -1 -0 -0 -0 -0 -0 -0 -0 -0 -0 -0 -0 -0 -0 -335 -484 -479 -0 -0 -292 -190 -164 -226 -251 -240 -0 -0 -0 -0 -0 -0 -0 -0 -0 -0 -0 -0 -0 -0 -0 -0 -0
-0 -1 -1 -1 -1 -1 -1 -0 -0 -0 -0 -0 -0 -0 -0 -0 -0 -464 -489 -411 -0 -301 -263 -202 -225 -216 -253 -206 -0 -341 -241 -0 -0 -0 -0 -0 -0 -0 -0 -0 -0 -0 -0 -0
-0 -2 -1 -0 -1 -1 -2 -0 -0 -0 -0 -0 -0 -0 -0 -0 -0 -0 -478 -482 -461 -347 -290 -264 -231 -234 -233 -292 -357 -271 -280 -0 -0 -0 -0 -0 -0 -0 -0 -0 -0 -0 -0 -0
-0 -0 -2 -0 -3 -1 -1 -0 -0 -0 -0 -0 -0 -0 -0 -0 -0 -0 -564 -423 -457 -438 -396 -370 -356 -304 -252 -0 -0 -252 -247 -0 -0 -0 -0 -0 -0 -0 -0 -0 -0 -0 -0 -0
-12 -1 -0 -0 -0 -0 -0 -0 -0 -0 -0 -0 -0 -0 -0 -0 -0 -0 -0 -346 -348 -378 -440 -522 -0 -0 -337 -0 -0 -215 -216 -0 -0 -0 -0 -0 -0 -0 -0 -0 -0 -0 -0 -0
-3 -4 -0 -4 -0 -0 -0 -0 -1 -0 -0 -0 -0 -0 -0 -0 -0 -0 -0 -454 -468 -451 -596 -468 -593 -0 -529 -320 -0 -0 -33 -34 -0 -0 -0 -0 -0 -0 -0 -0 -0 -0 -0 -0
-2 -0 -0 -0 -0 -0 -6 -11 -0 -0 -1 -0 -0 -0 -0 -0 -0 -0 -0 -0 -431 -0 -0 -669 -503 -506 -0 -338 -0 -0 -0 -0 -0 -0 -0 -0 -0 -0 -0 -0 -0 -0 -0 -0
-1 -0 -3 -1 -0 -0 -1 -0 -0 -2 -0 -1 -0 -0 -0 -0 -0 -0 -0 -0 -0 -0 -0 -548 -413 -356 -284 -0 -0 -0 -0 -0 -0 -142 -0 -0 -0 -0 -0 -0 -0 -0 -0 -0
-0 -0 -0 -1 -0 -0 -0 -3 -0 -0 -0 -2 -1 -0 -0 -0 -0 -0 -0 -0 -0 -0 -0 -0 -204 -0 -0 -0 -0 -0 -15 -360 -0 -0 -0 -0 -0 -0 -0 -0 -0 -0 -0 -0
-1 -1 -0 -0 -0 -0 -0 -2 -0 -0 -0 -1 -0 -1 -1 -0 -0 -0 -0 -0 -0 -0 -0 -0 -0 -0 -0 -160 -376 -375 -364 -444 -427 -56 -0 -0 -0 -0 -60 -121 -0 -0 -0 -0
-1 -1 -0 -0 -0 -0 -0 -1 -3 -0 -0 -0 -0 -0 -1 -2 -0 -0 -0 -0 -0 -0 -0 -0 -0 -0 -0 -0 -497 -245 -228 -295 -348 -357 -449 -78 -75 -263 -226 -45 -254 -320 -383 -179
-0 -0 -1 -0 -0 -0 -0 -0 -0 -0 -0 -0 -0 -0 -0 -0 -2 -0 -0 -0 -0 -0 -0 -0 -0 -0 -0 -435 -265 -190 -212 -204 -253 -348 -263 -305 -377 -437 -298 -0 -0 -242 -319 -346
-1 -0 -0 -0 -1 -0 -0 -0 -0 -0 -0 -0 -0 -0 -0 -0 -0 -2 -5 -0 -0 -0 -0 -0 -0 -0 -0 -212 -76 -101 -108 -149 -266 -318 -313 -328 -275 -349 -0 -0 -0 -0 -0 -0
Wind_Speed
34 33 35 40 47 41 45 43 39 26 32 25 10 10 11 13 3 8 11 13 13 14 14 15 17 17 17 16 17 17 18 19 19 20 21 21 21 22 22 22 22 21 13 10
43 37 35 38 39 46 40 42 41 30 29 28 30 28 22 22 14 10 12 13 14 16 17 17 18 19 17 17 19 20 21 19 20 21 22 22 22 23 23 22 22 22 20 9
48 38 33 40 39 42 39 39 40 38 32 17 17 21 22 18 26 8 10 14 17 19 20 18 18 20 19 19 21 22 21 21 21 22 23 22 22 22 23 22 21 18 11 7
48 35 42 24 24 32 38 37 41 34 32 27 24 20 21 19 21 26 6 15 20 22 21 19 19 20 20 21 22 23 22 23 23 24 24 23 23 24 23 22 21 20 9 12
43 47 27 23 21 25 30 28 25 30 33 30 28 26 26 23 22 27 24 26 23 23 21 21 20 21 22 21 23 23 23 24 25 25 25 25 24 24 24 24 22 20 23 20
37 46 43 24 24 24 24 28 20 24 27 29 27 32 21 16 17 21 26 30 22 21 21 22 21 23 23 23 24 24 24 24 25 25 25 25 24 24 25 26 26 25 26 25
34 35 29 20 21 24 36 26 22 23 25 26 30 28 28 24 22 21 27 30 29 24 21 22 22 23 25 24 24 25 24 24 26 26 25 25 24 24 26 26 26 27 28 28
33 38 32 19 21 28 24 21 20 23 24 27 28 29 30 28 26 22 24 29 29 24 22 21 21 23 24 25 25 26 25 25 25 25 25 25 24 25 25 26 26 27 28 27
25 28 24 21 17 16 18 21 20 22 24 26 28 28 28 29 28 26 24 32 16 24 25 21 22 23 24 24 26 26 25 25 25 25 25 24 25 25 25 26 26 26 27 27
24 23 24 21 18 18 19 20 21 22 24 25 27 27 28 28 27 27 26 33 36 28 26 25 22 22 24 24 26 26 25 25 26 26 26 26 26 27 26 26 26 27 27 27
21 19 22 24 23 23 24 23 23 22 22 24 25 26 27 28 28 28 28 29 39 36 28 26 26 22 21 23 24 24 26 24 25 26 26 26 27 27 27 27 26 27 27 28
20 18 22 28 28 26 25 25 25 23 23 23 24 25 26 28 29 29 28 28 36 41 26 21 25 25 21 21 24 23 25 25 25 25 26 26 27 27 25 24 28 25 24 25
23 25 26 27 27 23 26 27 26 26 24 23 23 24 24 26 28 29 31 31 26 38 30 19 22 25 23 21 22 22 22 23 23 26 24 26 26 26 25 27 27 29 28 28
27 27 26 22 26 28 28 28 26 26 25 23 23 23 24 25 26 27 30 31 27 27 20 16 19 24 23 21 19 21 19 18 19 24 21 23 24 26 25 22 24 25 27 23
24 27 29 30 29 28 27 28 29 26 25 24 23 23 23 24 25 26 27 29 26 24 23 15 16 20 21 22 21 18 18 15 15 15 16 19 19 22 23 23 21 21 18 12
27 28 28 28 29 28 27 27 29 29 27 26 24 23 23 24 24 23 23 26 27 27 27 20 15 19 20 20 19 17 17 14 16 9 10 13 13 14 16 17 17 17 15 13
26 27 27 27 28 29 29 29 29 31 30 28 27 26 25 24 23 22 22 23 25 25 26 27 21 14 17 19 19 17 16 13 15 9 9 11 12 11 8 9 12 13 12 10
24 25 26 27 28 29 29 29 30 30 30 30 29 28 26 24 23 23 23 23 22 24 25 23 21 22 14 17 19 16 15 14 17 17 12 10 11 9 8 8 8 8 8 7
22 21 21 24 26 27 28 29 30 32 32 31 30 28 27 26 24 23 23 22 20 20 20 22 24 26 16 13 16 16 14 14 13 16 16 12 10 10 10 10 9 9 9 9
22 21 21 23 23 24 26 27 29 30 31 31 32 31 30 28 27 26 23 22 20 21 22 21 21 22 20 18 15 16 16 15 15 15 15 14 13 13 12 12 11 11 11 11
25 23 23 23 23 24 24 25 27 29 30 31 32 33 32 31 30 29 27 25 23 22 23 22 21 20 20 20 14 18 19 18 18 17 16 16 15 15 15 15 15 15 16 16
25 25 23 24 23 23 24 25 26 27 29 31 33 34 35 34 32 31 30 29 27 24 25 25 24 22 24 21 18 19 24 22 22 19 20 18 18 18 19 18 20 20 22 22
22 24 23 24 24 24 24 24 25 26 27 29 32 34 36 36 36 35 35 30 30 29 29 29 28 28 26 23 21 21 21 23 25 22 21 21 19 20 24 26 29 25 25 24
22 23 22 22 23 24 26 26 27 27 29 30 31 33 35 38 39 36 35 35 32 31 31 31 30 29 28 24 24 24 21 23 24 24 22 19 19 17 19 20 27 34 31 29
24 23 24 22 24 25 27 29 29 29 30 31 32 33 35 36 40 39 37 36 35 34 33 33 33 32 31 32 34 30 26 23 24 25 27 27 26 28 19 32 23 30 37 35
26 26 25 25 25 26 27 28 30 31 33 33 33 34 35 36 37 38 39 39 39 38 37 35 33 32 33 33 34 33 32 32 28 28 31 32 29 27 26 24 25 20 33 38
26 26 28 28 28 28 27 27 28 30 32 34 35 34 34 34 36 37 38 37 36 36 36 35 34 33 34 34 35 35 33 32 30 30 29 30 29 27 30 28 28 27 30 33
Wind_Direction
230 225 227 225 222 224 226 228 232 240 239 244 245 269 281 257 207 121 116 118 117 118 117 115 120 120 116 112 108 111 113 120 131 129 126 117 116 109 109 117 118 110 58 25
221 224 226 225 228 225 229 228 231 241 240 242 247 243 251 244 238 136 123 118 120 122 124 121 123 125 118 112 118 121 126 116 128 125 126 118 114 127 116 102 114 112 101 38
213 219 224 224 228 226 229 231 229 233 236 255 248 244 245 252 224 155 124 119 124 129 132 125 126 127 122 118 123 128 124 115 125 130 131 109 105 106 109 104 104 86 46 198
214 215 216 228 235 230 228 233 228 237 234 239 240 252 249 246 231 224 237 123 129 132 132 127 125 128 123 121 127 130 127 124 127 132 127 122 119 106 111 121 120 120 292 245
211 212 220 228 234 227 226 231 241 239 239 247 244 239 237 245 239 230 232 174 143 134 130 129 129 129 128 124 131 132 129 130 134 130 130 131 129 120 121 117 122 140 144 136
215 211 215 232 243 241 235 230 247 242 239 236 237 228 238 255 254 244 229 211 141 133 128 131 133 134 133 131 136 137 133 132 136 132 130 132 135 132 132 124 100 124 121 139
219 214 223 249 248 232 220 230 247 243 239 237 233 238 245 246 249 253 228 219 164 144 134 134 135 137 140 138 140 140 134 132 136 138 137 131 132 135 132 131 115 102 112 125
222 219 220 256 240 225 235 246 250 246 245 243 243 245 241 242 244 250 235 223 160 150 142 133 136 141 144 144 143 143 140 138 137 137 140 136 133 131 134 134 130 124 125 131
232 228 246 243 238 251 256 247 255 255 252 248 248 247 246 243 244 247 242 219 227 156 152 142 140 144 147 145 145 143 141 140 141 142 144 136 139 139 134 138 139 140 138 134
236 244 242 239 256 263 261 255 261 264 258 253 250 252 250 247 246 245 243 219 214 164 159 156 148 146 148 144 147 146 144 143 146 147 147 146 150 154 152 149 148 148 147 145
244 257 245 244 260 265 264 261 262 268 266 262 259 257 254 250 248 247 245 235 210 179 168 163 157 148 143 145 147 147 150 147 148 152 153 152 162 160 164 164 162 152 153 154
246 268 255 250 260 265 260 262 262 267 267 272 267 265 262 255 252 249 248 243 224 201 170 165 163 158 150 146 149 150 152 153 154 154 155 158 161 164 207 199 175 192 189 176
265 272 271 267 264 263 269 264 264 264 266 271 274 271 271 262 256 253 248 243 244 191 176 172 168 165 161 154 153 153 154 153 154 160 155 160 162 162 160 192 202 191 186 183
269 272 267 269 269 269 270 265 269 267 265 271 277 277 273 268 263 256 246 243 245 245 240 187 177 173 168 163 160 160 158 155 154 161 156 159 162 166 165 158 163 166 175 159
269 271 268 269 271 271 274 268 262 264 267 269 277 279 278 272 268 263 255 247 246 247 244 224 197 182 174 170 168 165 163 160 162 158 157 159 157 162 166 165 162 162 156 154
275 271 271 268 268 270 275 270 263 261 266 269 273 278 280 277 275 270 263 252 246 245 245 241 206 187 180 177 174 173 171 172 167 172 168 165 161 162 162 164 163 164 163 162
282 277 276 273 272 270 271 272 268 264 267 269 271 276 280 282 280 274 269 261 253 250 247 246 249 228 192 185 182 179 176 178 177 188 178 169 171 173 183 178 172 171 173 174
294 283 276 275 276 274 272 270 267 267 266 269 273 274 275 280 281 277 272 265 261 253 252 255 255 249 203 192 189 190 185 183 182 183 185 190 182 187 193 202 208 203 199 215
309 302 297 285 282 281 276 275 270 267 265 266 268 271 273 272 278 281 279 269 262 256 259 261 257 250 245 219 203 203 205 201 204 196 191 195 205 202 200 203 220 224 231 221
329 318 311 303 291 287 280 274 272 271 269 266 266 265 268 271 273 275 279 268 265 265 268 269 266 256 257 255 216 229 228 225 236 234 223 221 220 216 220 225 229 243 242 239
333 321 320 319 302 297 298 291 282 270 267 266 266 265 268 270 271 270 270 268 270 277 277 272 269 265 261 260 238 235 244 241 243 244 239 238 242 241 244 249 248 252 257 256
333 337 330 324 317 311 309 304 300 289 277 268 266 265 265 267 269 268 268 269 274 279 277 274 270 272 269 265 258 242 251 251 251 249 251 250 252 259 260 263 266 263 265 265
324 331 327 332 327 322 319 318 316 308 297 284 274 271 266 264 266 266 265 270 272 275 274 272 273 272 273 267 263 252 250 254 255 255 252 254 257 264 271 273 274 273 270 268
318 322 321 319 323 328 333 330 322 317 310 303 291 280 274 268 266 266 266 266 270 271 271 274 275 276 269 266 264 261 259 259 256 254 252 248 253 256 272 274 275 274 272 271
318 320 326 317 321 323 327 327 329 326 319 310 301 290 284 276 266 265 263 263 265 268 270 272 272 273 268 263 263 265 265 263 259 257 256 263 264 269 280 272 282 265 267 269
322 322 321 327 322 323 326 331 331 329 325 319 313 304 292 282 274 269 266 264 264 266 270 270 273 271 268 265 265 266 266 266 265 263 265 267 273 273 275 276 281 272 266 265
328 334 326 327 326 325 326 331 333 331 328 327 322 316 308 295 278 273 272 270 269 269 268 270 271 269 268 266 267 266 267 268 269 269 268 269 273 276 278 283 281 276 270 265